When you browse on this site, cookies collect data to enhance your experience and personalize the content and advertising you see.
Visit our Privacy Policy to learn more. By continuing to use the site, you agree to this use of cookies and data.
  • En España
  • Lista de países
  • Para 7 días
  • Temperatura del agua
  • El tiempo en el mapa
  • Informadores
  • user-avatar
    Iniciar sesión

    Tiempo cada hora Rawson

    Hoy, 17 Octubre, Jueves

    Tiempo Temperatura Precipitaciones Viento Presión Humedad
    00:00 +12°C° 0 mm 9 mps 761 mmHg 59%
    01:00 +12°C° 0 mm 9 mps 761 mmHg 60%
    02:00 +11°C° 0 mm 7 mps 761 mmHg 61%
    03:00 +11°C° 0 mm 7 mps 761 mmHg 62%
    04:00 +11°C° 0 mm 7 mps 761 mmHg 63%
    05:00 +10°C° 0 mm 7 mps 761 mmHg 63%
    06:00 +13°C° 0 mm 6 mps 761 mmHg 56%
    07:00 +14°C° 0 mm 5 mps 761 mmHg 48%
    08:00 +17°C° 0 mm 4 mps 761 mmHg 40%
    09:00 +18°C° 0 mm 4 mps 761 mmHg 35%
    10:00 +20°C° 0 mm 4 mps 761 mmHg 30%
    11:00 +21°C° 0 mm 4 mps 761 mmHg 24%
    12:00 +22°C° 0 mm 4 mps 761 mmHg 23%
    13:00 +22°C° 0 mm 4 mps 761 mmHg 22%
    14:00 +23°C° 0 mm 4 mps 761 mmHg 21%
    15:00 +23°C° 0 mm 4 mps 760 mmHg 21%
    16:00 +22°C° 0 mm 5 mps 760 mmHg 22%
    17:00 +22°C° 0 mm 5 mps 760 mmHg 23%
    18:00 +21°C° 0 mm 5 mps 760 mmHg 28%
    19:00 +20°C° 0 mm 5 mps 760 mmHg 33%
    20:00 +17°C° 0 mm 6 mps 760 mmHg 38%
    21:00 +17°C° 0 mm 5 mps 761 mmHg 39%
    22:00 +16°C° 0 mm 5 mps 761 mmHg 40%
    23:00 +17°C° 0 mm 4 mps 761 mmHg 41%

    Mañana, 18 Octubre, Viernes

    Tiempo Temperatura Precipitaciones Viento Presión Humedad
    00:00 +15°C° 0 mm 5 mps 761 mmHg 40%
    01:00 +15°C° 0 mm 6 mps 761 mmHg 40%
    02:00 +15°C° 0 mm 6 mps 760 mmHg 40%
    03:00 +14°C° 0 mm 6 mps 761 mmHg 43%
    04:00 +13°C° 0 mm 6 mps 761 mmHg 46%
    05:00 +11°C° 0 mm 6 mps 761 mmHg 49%
    06:00 +13°C° 0 mm 6 mps 762 mmHg 44%
    07:00 +14°C° 0 mm 7 mps 762 mmHg 40%
    08:00 +16°C° 0 mm 7 mps 762 mmHg 35%
    09:00 +17°C° 0 mm 6 mps 763 mmHg 33%
    10:00 +19°C° 0 mm 5 mps 763 mmHg 31%
    11:00 +20°C° 0 mm 4 mps 763 mmHg 29%
    12:00 +19°C° 0 mm 5 mps 763 mmHg 31%
    13:00 +19°C° 0 mm 6 mps 763 mmHg 33%
    14:00 +18°C° 0 mm 7 mps 763 mmHg 35%
    15:00 +17°C° 0 mm 6 mps 763 mmHg 39%
    16:00 +16°C° 0 mm 6 mps 763 mmHg 43%
    17:00 +15°C° 0 mm 5 mps 763 mmHg 48%
    18:00 +14°C° 0 mm 5 mps 764 mmHg 52%
    19:00 +13°C° 0 mm 4 mps 764 mmHg 56%
    20:00 +12°C° 0 mm 4 mps 764 mmHg 60%
    21:00 +11°C° 0 mm 4 mps 764 mmHg 60%
    22:00 +10°C° 0 mm 5 mps 765 mmHg 59%
    23:00 +10°C° 0 mm 5 mps 765 mmHg 58%

    Pasado mañana, 19 Octubre, Sábado

    Tiempo Temperatura Precipitaciones Viento Presión Humedad
    00:00 +10°C° 0 mm 5 mps 764 mmHg 57%
    01:00 +10°C° 0 mm 6 mps 764 mmHg 56%
    02:00 +10°C° 0 mm 6 mps 763 mmHg 55%
    03:00 +10°C° 0 mm 6 mps 763 mmHg 57%
    04:00 +10°C° 0 mm 6 mps 763 mmHg 59%
    05:00 +10°C° 0 mm 6 mps 763 mmHg 61%
    06:00 +12°C° 0 mm 7 mps 763 mmHg 53%
    07:00 +15°C° 0 mm 8 mps 762 mmHg 45%
    08:00 +17°C° 0 mm 9 mps 762 mmHg 36%
    09:00 +22°C° 0 mm 9 mps 762 mmHg 29%
    10:00 +26°C° 0 mm 8 mps 761 mmHg 21%
    11:00 +29°C° 0 mm 8 mps 761 mmHg 13%
    12:00 +31°C° 0 mm 8 mps 760 mmHg 13%
    13:00 +32°C° 0 mm 8 mps 760 mmHg 13%
    14:00 +33°C° 0 mm 8 mps 759 mmHg 12%
    15:00 +33°C° 0 mm 8 mps 758 mmHg 13%
    16:00 +32°C° 0 mm 9 mps 757 mmHg 14%
    17:00 +32°C° 0 mm 10 mps 757 mmHg 14%
    18:00 +28°C° 0 mm 10 mps 757 mmHg 19%
    19:00 +26°C° 0 mm 11 mps 757 mmHg 23%
    20:00 +22°C° 0 mm 11 mps 757 mmHg 28%
    21:00 +22°C° 0 mm 12 mps 757 mmHg 30%
    22:00 +22°C° 0 mm 12 mps 757 mmHg 32%
    23:00 +22°C° 0 mm 12 mps 757 mmHg 34%

    20 Octubre, Domingo

    Tiempo Temperatura Precipitaciones Viento Presión Humedad
    00:00 +22°C° 0 mm 12 mps 757 mmHg 34%
    01:00 +22°C° 0 mm 12 mps 757 mmHg 34%
    02:00 +22°C° 0 mm 12 mps 756 mmHg 34%
    03:00 +22°C° 0 mm 11 mps 756 mmHg 33%
    04:00 +22°C° 0 mm 11 mps 756 mmHg 33%
    05:00 +22°C° 0 mm 10 mps 756 mmHg 33%
    06:00 +22°C° 0 mm 11 mps 756 mmHg 35%
    07:00 +23°C° 0 mm 12 mps 756 mmHg 38%
    08:00 +24°C° 0 mm 13 mps 756 mmHg 41%
    09:00 +26°C° 0 mm 11 mps 756 mmHg 35%
    10:00 +28°C° 0 mm 9 mps 756 mmHg 30%
    11:00 +29°C° 0 mm 8 mps 756 mmHg 25%
    12:00 +29°C° 0 mm 8 mps 755 mmHg 27%
    13:00 +28°C° 0 mm 8 mps 755 mmHg 28%
    14:00 +27°C° 0 mm 8 mps 754 mmHg 30%
    15:00 +27°C° 0 mm 9 mps 754 mmHg 30%
    16:00 +27°C° 0 mm 10 mps 754 mmHg 31%
    17:00 +27°C° 0 mm 11 mps 753 mmHg 31%
    18:00 +26°C° 0 mm 11 mps 753 mmHg 36%
    19:00 +23°C° 0 mm 11 mps 753 mmHg 41%
    20:00 +21°C° 0 mm 12 mps 753 mmHg 46%
    21:00 +22°C° 0 mm 10 mps 753 mmHg 37%
    22:00 +22°C° 0 mm 9 mps 753 mmHg 29%
    23:00 +23°C° 0 mm 7 mps 753 mmHg 21%

    21 Octubre, Lunes

    Tiempo Temperatura Precipitaciones Viento Presión Humedad
    00:00 +22°C° 0 mm 9 mps 754 mmHg 22%
    01:00 +21°C° 0 mm 10 mps 754 mmHg 22%
    02:00 +19°C° 0 mm 11 mps 754 mmHg 23%
    03:00 +17°C° 0 mm 12 mps 755 mmHg 25%
    04:00 +14°C° 0 mm 12 mps 756 mmHg 27%
    05:00 +12°C° 0 mm 12 mps 757 mmHg 29%
    06:00 +12°C° 0 mm 12 mps 757 mmHg 32%
    07:00 +12°C° 0 mm 13 mps 758 mmHg 36%
    08:00 +10°C° 0 mm 13 mps 759 mmHg 39%
    09:00 +10°C° 0.3 mm 13 mps 759 mmHg 47%
    10:00 +9°C° 0.3 mm 13 mps 760 mmHg 56%
    11:00 +8°C° 0.3 mm 13 mps 760 mmHg 64%
    12:00 +11°C° 0 mm 11 mps 761 mmHg 53%
    13:00 +13°C° 0 mm 10 mps 761 mmHg 43%
    14:00 +15°C° 0 mm 8 mps 762 mmHg 33%
    15:00 +15°C° 0 mm 8 mps 762 mmHg 33%
    16:00 +14°C° 0 mm 7 mps 762 mmHg 33%
    17:00 +12°C° 0 mm 7 mps 762 mmHg 33%
    18:00 +12°C° 0 mm 5 mps 762 mmHg 38%
    19:00 +11°C° 0 mm 4 mps 763 mmHg 43%
    20:00 +9°C° 0 mm 2 mps 763 mmHg 48%
    21:00 +9°C° 0 mm 2 mps 763 mmHg 49%
    22:00 +9°C° 0 mm 1 mps 764 mmHg 50%
    23:00 +9°C° 0 mm 1 mps 764 mmHg 50%

    22 Octubre, Martes

    Tiempo Temperatura Precipitaciones Viento Presión Humedad
    00:00 +9°C° 0 mm 1 mps 764 mmHg 48%
    01:00 +8°C° 0 mm 2 mps 763 mmHg 46%
    02:00 +8°C° 0 mm 2 mps 763 mmHg 43%
    03:00 +7°C° 0 mm 2 mps 763 mmHg 46%
    04:00 +7°C° 0 mm 2 mps 763 mmHg 48%
    05:00 +7°C° 0 mm 2 mps 763 mmHg 51%
    06:00 +9°C° 0 mm 2 mps 763 mmHg 47%
    07:00 +11°C° 0 mm 3 mps 763 mmHg 43%
    08:00 +13°C° 0 mm 3 mps 763 mmHg 39%
    09:00 +14°C° 0 mm 3 mps 762 mmHg 34%
    10:00 +17°C° 0 mm 3 mps 762 mmHg 30%
    11:00 +19°C° 0 mm 3 mps 762 mmHg 25%
    12:00 +20°C° 0 mm 3 mps 761 mmHg 24%
    13:00 +20°C° 0 mm 3 mps 761 mmHg 23%
    14:00 +21°C° 0 mm 3 mps 760 mmHg 22%
    15:00 +20°C° 0 mm 4 mps 760 mmHg 24%
    16:00 +19°C° 0 mm 5 mps 759 mmHg 27%
    17:00 +19°C° 0 mm 6 mps 759 mmHg 30%
    18:00 +17°C° 0 mm 6 mps 759 mmHg 35%
    19:00 +15°C° 0 mm 5 mps 759 mmHg 40%
    20:00 +14°C° 0 mm 5 mps 759 mmHg 44%
    21:00 +13°C° 0 mm 4 mps 760 mmHg 47%
    22:00 +13°C° 0 mm 4 mps 760 mmHg 50%
    23:00 +12°C° 0 mm 3 mps 760 mmHg 53%
    Mostrar más